Theta_e
339 338 337 335 336 333 333 334 335 335 335 334 333 330 331 332 328 329 331 332 333 333 333 333 333 332 331 333 332 331 331 332 333 332 332 332 332 333 332 332 331 331 331 331 331 331 331 330 328 327 326 324 324 323 322 321 321 322 320 317 317 318 317 316 314 314 316 318 319 319 320 321 320 321 321 322 324 325 330 329 331 333 336 338 341
338 337 337 335 335 333 333 333 335 334 334 334 333 332 331 332 332 331 330 331 332 332 332 332 332 332 332 331 332 332 332 332 332 332 333 332 332 334 334 332 331 331 330 329 328 330 330 328 327 327 326 325 324 323 322 320 320 318 317 319 317 317 318 316 315 314 313 316 317 319 319 321 318 321 320 321 322 325 325 327 329 331 334 338 341
338 336 336 334 334 334 335 335 334 333 333 332 333 333 332 332 333 332 331 331 332 332 332 331 331 332 332 332 331 331 331 331 331 332 332 332 332 332 334 333 331 331 330 329 328 328 328 328 327 326 327 324 324 323 322 321 320 319 318 318 317 317 318 318 316 314 314 315 318 317 318 319 318 319 321 322 324 325 325 326 328 332 335 337 340
337 335 334 334 334 335 335 335 334 334 333 332 332 332 333 333 334 333 332 332 332 333 333 332 331 331 331 331 331 330 330 331 331 332 333 332 332 332 332 332 332 331 331 330 329 328 327 326 326 326 325 324 322 321 321 321 320 320 318 318 318 318 318 318 318 316 317 315 318 318 319 317 318 320 321 323 323 324 326 327 330 331 333 335 337
337 335 334 334 334 334 334 334 333 333 332 333 333 333 333 334 334 333 332 331 331 330 332 333 331 330 331 330 330 330 330 330 330 332 333 333 332 331 331 330 330 331 331 330 333 329 327 326 326 325 324 323 322 320 320 319 320 319 318 318 318 318 319 319 318 318 317 317 318 320 319 318 319 319 321 320 322 323 325 325 327 329 331 334 337
338 334 334 334 334 333 334 334 333 333 333 333 334 335 334 333 331 332 332 330 329 329 328 330 332 329 329 330 330 330 329 329 331 332 333 333 332 331 332 332 332 330 329 329 329 329 328 326 326 325 323 322 321 321 320 319 319 318 318 317 317 318 317 317 318 319 319 319 318 318 318 316 316 318 320 321 320 320 321 324 326 329 331 332 335
336 334 334 334 335 334 334 334 334 334 335 334 334 334 333 332 331 328 330 327 328 327 327 326 330 328 327 329 330 330 330 330 330 331 331 330 330 330 331 331 330 330 329 329 329 328 327 326 325 324 323 322 321 321 320 319 320 319 320 318 318 317 317 317 318 319 320 319 319 318 316 317 317 316 319 321 321 321 320 321 322 326 328 330 331
336 336 336 334 334 335 335 335 335 335 335 334 333 333 333 331 329 328 330 327 327 326 326 326 326 329 328 328 329 328 327 327 328 330 331 330 330 330 329 329 328 328 328 328 328 327 327 326 325 324 324 323 323 322 321 320 320 319 319 319 318 318 316 318 319 320 320 320 318 316 315 315 316 318 319 319 317 318 320 320 319 320 322 326 329
334 335 336 335 334 335 336 335 335 335 335 334 333 332 332 331 329 329 331 328 329 327 328 328 327 326 326 328 328 328 328 329 331 332 331 330 330 329 328 328 327 327 327 327 327 327 326 326 325 324 327 329 326 324 322 321 321 319 319 319 319 318 317 318 320 321 320 319 317 316 314 314 315 315 315 315 315 315 318 319 319 321 323 324 326
335 335 335 336 336 336 335 336 335 335 334 334 333 333 332 331 329 328 329 328 328 330 328 328 328 328 327 327 326 328 330 331 336 335 333 332 329 330 330 329 327 327 327 326 326 326 326 325 327 332 329 326 324 324 321 319 318 321 321 319 319 318 318 318 319 321 320 318 316 314 313 313 314 315 315 315 317 318 317 318 318 320 321 322 324
335 335 335 336 336 335 335 335 334 333 334 334 333 333 331 330 329 328 327 327 328 328 330 328 329 330 329 327 326 327 329 331 331 328 329 333 333 329 328 328 327 327 328 327 327 328 327 325 324 328 330 329 329 326 324 321 320 318 318 318 319 321 320 320 320 320 320 318 317 315 314 313 314 316 315 315 316 316 317 318 318 319 318 318 317
336 336 336 336 336 335 335 335 334 334 333 333 333 331 330 328 327 327 327 327 328 328 329 329 329 329 329 328 327 328 327 331 326 327 328 329 332 332 327 326 327 327 327 327 327 326 326 325 326 326 326 326 326 326 326 325 321 319 318 317 317 317 318 321 321 320 320 318 316 315 315 314 315 315 315 315 315 316 317 317 318 318 318 318 319
336 337 337 336 336 335 334 335 335 334 334 333 333 331 329 328 328 327 327 328 328 328 329 329 329 329 329 328 329 329 329 329 326 325 326 326 326 328 326 326 326 327 326 326 326 326 326 326 326 326 326 328 331 327 323 323 322 320 318 318 317 317 318 317 317 321 322 319 317 316 316 316 315 315 316 316 317 315 316 317 318 318 319 319 319
337 337 336 336 337 336 334 334 333 334 334 333 332 330 329 328 328 328 329 328 328 329 329 329 330 329 329 328 328 329 329 329 325 323 323 322 323 325 324 324 324 324 324 325 326 326 326 325 325 325 324 325 324 323 322 320 320 321 320 321 322 323 319 318 316 316 317 320 319 316 317 318 317 317 319 319 317 316 316 316 317 318 318 319 321
337 335 334 334 335 334 334 334 332 332 332 332 330 329 329 328 328 329 330 329 329 330 331 329 328 329 328 328 328 328 331 325 322 320 318 318 319 323 321 323 323 322 323 324 324 325 325 325 324 323 324 323 324 324 321 320 319 319 319 319 320 321 322 323 323 322 322 320 318 318 319 320 319 319 319 319 318 317 318 317 318 319 320 322 323
335 333 332 331 334 333 331 330 331 331 330 330 329 329 328 328 328 329 330 329 329 330 329 328 326 326 327 326 327 327 328 318 319 318 318 317 320 323 320 320 320 320 321 322 323 324 325 324 323 323 323 322 321 319 320 321 318 318 317 319 319 320 320 318 318 319 321 321 320 321 321 321 316 318 318 317 316 317 318 320 320 320 319 318 317
333 333 333 333 335 334 331 329 330 331 330 330 329 330 329 329 329 330 329 329 330 330 328 326 326 326 327 327 325 324 325 321 316 317 317 316 318 320 319 320 321 322 322 324 324 324 324 324 323 323 323 323 321 318 317 317 317 318 318 317 316 315 317 320 318 316 315 313 312 313 313 312 313 312 312 313 316 317 318 317 316 318 316 315 316
332 333 334 334 335 333 333 332 332 332 331 330 330 330 330 330 331 334 331 330 330 330 327 325 326 327 327 326 326 323 323 322 316 313 314 315 320 320 319 319 319 321 322 323 323 323 324 332 332 327 326 325 320 317 316 317 317 315 313 313 314 316 318 320 321 320 315 314 314 314 315 315 314 313 313 313 314 315 318 315 318 318 316 316 315
332 333 334 334 334 333 334 334 333 332 331 331 331 331 331 331 332 333 332 330 328 326 328 325 325 326 327 327 330 327 323 322 317 312 312 312 316 317 318 318 319 321 322 322 322 322 322 326 326 324 323 322 315 315 312 312 314 312 312 314 316 317 318 318 316 315 316 316 317 319 318 317 319 319 320 315 315 316 321 321 322 320 317 317 318
331 334 335 335 335 335 335 335 334 333 332 332 331 330 331 331 330 330 327 327 327 325 327 326 325 325 325 326 326 326 324 324 325 314 310 310 313 319 319 318 320 320 319 321 320 318 318 318 321 319 316 311 310 307 305 306 310 313 314 315 316 314 315 314 315 315 315 316 316 318 319 319 318 318 318 319 321 324 322 322 322 321 319 318 319
330 333 336 336 336 336 336 335 334 334 333 332 333 333 332 330 328 329 328 327 324 323 323 324 325 323 323 324 324 324 325 324 325 314 310 310 312 316 318 319 319 316 315 316 315 315 316 317 318 318 314 310 304 302 302 303 306 311 315 315 314 315 309 310 314 315 316 317 318 318 318 318 317 317 317 318 320 321 322 322 323 322 321 320 319
330 331 333 335 336 337 337 336 336 335 333 332 331 330 330 330 329 327 326 324 323 322 322 323 322 321 321 323 323 322 325 330 324 317 311 309 309 310 319 322 320 316 314 313 313 314 315 316 317 318 313 310 303 302 301 302 305 312 315 306 304 305 311 315 316 316 315 315 316 316 316 316 315 315 316 317 318 320 321 322 322 323 324 324 322
329 331 335 336 337 337 337 337 335 334 332 332 329 327 327 326 325 325 324 323 322 320 320 321 320 320 320 320 320 321 318 323 325 325 313 307 306 307 309 312 312 313 313 312 312 313 315 316 317 319 310 303 301 301 301 302 305 310 304 305 306 308 311 314 315 313 313 314 315 314 314 314 314 314 315 316 317 319 320 322 322 323 325 326 326
330 332 335 336 337 336 335 336 333 332 331 329 329 327 325 323 323 323 322 322 320 320 317 318 318 318 318 319 319 318 318 319 324 325 317 308 305 304 305 305 307 312 314 312 312 312 313 314 315 307 301 298 300 302 302 304 313 304 306 307 308 310 314 313 311 311 313 313 312 312 312 314 314 313 314 316 317 319 320 322 322 324 324 325 326
331 333 335 335 334 332 333 332 332 331 330 329 327 325 323 323 320 320 321 319 319 319 316 318 317 317 317 318 316 315 317 320 320 321 317 311 307 307 308 308 308 308 310 312 315 315 310 304 302 302 302 303 303 304 305 307 307 309 308 309 311 310 311 310 309 310 310 310 311 311 311 313 313 314 316 317 319 320 320 321 322 322 324 325 326
332 334 335 333 331 331 330 330 329 329 329 328 327 326 324 323 321 320 320 320 319 318 315 316 317 318 318 317 316 315 317 314 310 311 317 315 314 312 310 309 309 310 310 311 310 309 307 306 306 308 312 314 313 316 316 313 312 311 312 313 310 308 309 309 308 307 308 309 310 310 310 312 313 314 316 317 316 316 317 318 319 318 321 322 322
337 336 333 331 329 329 329 327 326 326 326 324 324 324 323 323 322 321 321 320 319 318 319 320 319 317 318 317 316 318 316 309 306 306 306 306 307 309 309 312 314 312 312 310 310 308 310 313 312 311 310 312 315 315 315 315 313 311 310 310 309 308 309 308 307 307 309 308 309 309 310 312 313 314 313 314 314 315 317 318 318 317 318 321 323
335 332 330 329 328 328 327 334 327 324 324 323 321 322 321 322 322 321 321 320 319 319 319 319 317 318 317 318 315 317 312 308 306 304 303 305 304 302 305 310 309 307 307 308 306 307 309 311 314 315 314 312 310 309 308 309 310 310 307 307 308 308 310 309 308 307 307 309 309 309 310 310 310 311 312 312 313 314 316 316 317 317 318 317 315
329 331 331 329 329 330 329 331 324 322 313 309 306 305 306 312 314 308 307 306 310 315 317 314 315 313 315 312 316 319 315 309 308 305 305 302 301 300 302 304 305 305 308 302 304 306 309 310 310 309 308 309 307 305 304 304 306 306 306 305 305 304 304 304 303 303 305 307 307 307 308 308 309 310 311 310 311 313 314 314 316 316 318 316 314
336 333 331 330 330 329 329 327 323 317 313 310 308 307 304 297 301 309 308 307 302 298 305 311 312 309 306 304 308 310 308 307 298 295 294 293 293 294 295 294 294 297 298 299 301 304 307 305 306 305 305 304 303 303 302 302 303 302 302 305 305 303 304 303 302 303 305 306 306 306 306 307 307 308 309 309 310 311 312 313 314 316 315 315 314
336 334 333 332 330 329 328 325 319 315 313 311 311 309 307 305 295 295 300 301 297 294 294 299 304 307 310 305 304 302 301 297 295 294 293 293 293 292 292 291 292 292 294 301 307 306 304 304 303 303 303 302 302 301 301 300 301 300 300 301 301 302 303 301 301 303 304 305 305 305 306 306 306 306 307 308 309 309 310 312 313 314 313 314 315
328 327 328 330 331 329 326 325 319 314 313 312 311 311 309 307 306 298 295 296 295 292 292 293 295 297 300 304 305 305 300 296 293 294 294 293 293 292 292 292 293 296 294 300 306 303 302 301 301 301 301 300 301 301 300 299 299 298 297 298 298 300 300 299 300 301 303 303 303 303 304 304 305 305 307 308 308 308 308 309 310 311 312 313 314
325 323 325 330 330 332 327 325 321 317 314 313 311 310 309 309 307 306 305 297 295 292 291 292 292 293 294 293 294 296 296 293 292 293 294 294 292 294 295 294 295 298 300 303 302 301 301 300 299 299 298 298 299 299 299 299 298 298 297 297 296 297 298 299 299 301 302 302 302 301 303 304 304 304 305 307 307 306 307 307 308 310 310 309 312
326 325 326 328 328 327 325 325 323 320 318 315 313 311 311 310 308 307 306 306 306 301 294 292 292 293 291 290 291 291 289 291 292 293 295 294 294 295 296 300 296 296 299 302 301 300 300 299 301 300 300 300 299 300 300 299 300 298 298 297 297 297 298 298 298 299 300 300 299 301 302 302 303 302 303 305 306 306 305 306 306 307 308 308 309
328 337 337 334 327 326 324 324 324 322 321 318 317 316 314 313 312 310 309 308 306 305 304 306 298 291 299 299 292 290 290 290 291 293 295 295 295 296 299 304 302 302 302 303 302 300 301 301 301 301 301 300 300 300 298 298 298 297 297 296 295 295 297 297 297 298 298 298 299 299 301 301 300 302 302 303 304 304 304 305 305 306 306 307 307
328 329 330 330 325 323 323 322 322 322 322 321 320 320 320 318 315 313 311 311 310 307 306 304 305 305 294 294 292 292 292 292 292 293 293 294 295 299 303 301 301 301 302 301 300 301 302 301 301 300 301 300 299 297 297 296 296 294 296 294 295 294 295 296 297 297 297 297 298 300 299 299 299 300 301 302 303 304 304 304 304 305 306 306 307
326 325 324 323 323 323 322 321 320 321 322 322 323 323 322 319 318 314 312 312 312 310 307 308 309 308 305 309 306 300 298 295 293 292 295 296 298 303 302 302 300 301 301 300 301 300 298 298 299 299 299 299 297 296 298 296 295 294 297 294 292 292 294 295 296 297 295 296 296 297 298 298 298 298 299 299 301 302 303 304 304 304 306 307 307
326 325 324 324 324 323 322 321 321 324 322 320 319 322 322 319 318 316 314 314 313 312 309 309 310 308 308 307 311 308 307 298 296 298 297 297 300 300 300 301 301 299 299 299 299 299 298 298 297 297 298 298 298 297 295 294 293 293 293 291 292 292 294 295 295 294 295 295 295 296 297 298 298 298 299 298 299 300 301 303 302 302 303 306 305
324 323 324 324 324 322 321 322 320 320 318 317 317 319 319 317 317 316 315 316 315 312 311 309 307 307 308 307 303 306 306 304 301 300 300 300 299 298 298 299 299 299 299 299 301 299 297 298 300 299 298 298 296 294 293 292 292 292 292 289 288 288 289 290 291 291 293 293 294 295 296 297 297 297 299 298 298 298 299 300 301 301 301 302 304
323 323 323 323 323 322 323 324 320 320 320 317 315 316 317 316 314 313 312 311 309 310 308 307 306 306 305 303 303 301 303 302 301 300 299 299 299 298 297 297 298 297 297 297 298 297 298 297 298 298 296 295 293 291 290 290 290 291 290 289 287 287 288 288 289 290 291 292 293 294 294 295 297 297 297 298 298 298 298 298 300 301 301 302 303
320 321 325 321 321 321 325 322 319 317 316 316 316 316 315 314 313 313 310 309 309 308 308 306 303 301 302 300 298 298 303 303 301 302 300 299 298 297 296 296 298 297 298 299 298 299 297 296 297 297 296 294 292 290 288 287 288 287 288 289 286 288 287 288 289 290 290 292 291 293 294 295 297 296 296 298 299 298 298 299 299 299 300 301 302
319 318 318 317 319 321 319 319 318 321 318 318 315 314 315 315 313 311 311 311 311 309 305 303 301 302 300 297 294 295 302 303 302 302 302 300 299 298 299 296 295 295 295 294 295 297 298 297 297 296 294 292 290 289 287 285 285 284 285 287 286 286 287 287 289 289 289 290 290 292 293 295 297 297 297 299 297 297 297 297 298 298 298 299 301
320 317 318 319 318 318 318 317 316 314 313 312 312 318 317 314 312 312 313 313 312 309 305 303 302 302 300 299 298 299 301 302 306 301 301 299 298 300 298 297 297 298 300 300 300 299 299 295 294 293 292 290 288 287 285 284 284 283 284 285 286 285 284 287 287 288 288 289 289 292 293 294 296 295 296 297 296 297 296 297 298 297 298 298 299
319 319 320 320 319 318 317 316 314 314 313 315 315 315 317 313 313 312 312 312 312 309 305 303 303 302 301 298 298 298 299 299 299 298 301 300 299 299 298 296 297 299 301 302 300 299 297 295 293 291 290 289 288 287 285 285 284 283 283 282 286 288 284 284 285 285 287 287 289 290 291 294 296 295 297 297 295 296 296 297 297 297 297 297 297
318 318 317 316 316 315 314 315 315 314 316 316 313 312 316 310 310 310 311 312 313 308 304 305 304 303 303 300 298 300 299 298 301 302 301 300 300 300 299 297 298 297 298 300 298 296 295 294 292 291 290 288 287 287 285 286 286 284 284 283 282 282 282 282 283 285 287 287 287 289 291 293 293 295 296 295 296 295 295 296 296 298 296 297 296
318 318 318 315 315 314 314 313 317 314 315 312 310 308 309 309 309 310 310 309 309 307 305 305 303 303 304 300 300 302 299 298 300 299 300 299 299 298 298 298 298 298 297 296 296 295 294 294 292 290 288 287 286 285 286 286 287 286 284 283 283 284 283 283 284 286 286 286 286 287 290 293 294 296 298 296 294 295 295 295 296 297 296 296 296
317 317 317 316 315 314 314 314 312 311 311 310 309 309 308 307 307 309 312 309 308 308 306 305 303 302 302 301 302 301 301 301 299 300 300 300 297 296 298 299 298 298 296 296 296 296 296 294 292 290 289 287 286 285 284 284 284 285 286 284 282 283 283 284 286 286 285 286 288 287 289 292 294 293 296 296 294 294 295 295 296 296 296 297 296
316 316 315 316 314 314 313 312 313 317 311 312 310 310 310 308 307 307 307 309 308 307 306 305 303 303 304 303 305 303 303 301 301 302 300 299 297 297 297 297 297 295 296 295 295 295 295 293 291 290 290 289 289 287 285 284 284 283 282 281 283 283 285 287 285 284 285 285 287 288 290 291 291 292 294 294 292 293 294 293 295 296 296 296 296
314 314 314 314 314 314 312 313 315 312 310 310 309 310 309 307 305 305 306 306 306 306 305 305 304 304 304 304 304 303 303 305 299 299 300 299 297 296 296 297 298 295 295 293 293 295 294 293 292 290 288 288 287 287 286 287 285 285 284 281 284 288 285 287 286 285 288 287 287 288 290 291 291 292 294 293 293 293 294 294 294 295 295 296 295
309 312 314 316 316 314 314 313 311 311 310 308 306 307 307 307 305 304 304 303 302 302 302 304 304 303 302 303 304 302 302 302 300 299 298 296 295 295 296 296 295 295 294 293 293 293 292 291 290 289 289 288 288 288 287 287 285 284 283 283 287 285 285 286 287 287 287 285 286 288 290 291 290 290 291 291 290 292 293 294 295 295 295 294 294
310 307 307 306 306 306 307 307 306 306 306 307 305 304 305 304 304 304 304 302 301 301 302 300 300 300 299 300 303 302 301 299 300 299 298 296 295 296 296 295 296 296 294 294 294 293 292 291 289 290 290 291 289 288 286 285 284 283 286 286 285 285 285 285 284 284 287 288 287 290 292 292 291 290 292 293 291 291 296 295 295 293 294 294 294
Wind_Speed
11 10 9 9 8 9 8 7 7 6 6 6 8 8 8 7 6 5 3 4 4 4 4 6 6 6 5 5 5 5 5 5 4 4 4 4 5 5 5 4 5 5 4 5 1 2 5 6 5 5 3 3 4 4 4 3 3 4 3 3 4 3 3 4 6 10 7 4 6 8 9 9 10 9 12 12 12 11 12 12 13 13 13 12 12
11 10 10 9 10 9 9 7 7 6 7 7 7 7 6 6 5 3 4 5 4 5 6 6 5 6 5 6 6 6 5 5 5 4 4 4 5 4 5 5 4 5 4 4 3 4 5 6 6 5 4 5 4 4 4 4 4 4 4 4 4 5 4 4 6 6 11 6 7 6 9 7 10 9 10 13 13 12 13 13 11 11 12 12 11
10 10 10 9 9 9 8 7 7 7 7 6 6 6 5 5 4 5 6 6 4 5 6 6 6 6 5 6 6 6 6 5 5 4 5 5 5 5 5 5 5 5 5 5 6 5 5 6 7 6 4 4 5 5 4 5 4 5 5 4 4 6 5 6 5 6 8 9 7 9 8 8 8 12 11 11 12 12 13 13 12 10 10 11 12
12 10 9 9 9 8 8 7 8 8 7 6 7 6 6 5 4 5 6 5 6 6 5 6 5 5 6 6 6 5 5 5 4 4 5 5 5 6 5 4 5 5 6 5 5 5 6 6 6 6 5 5 6 6 6 5 5 6 5 5 5 6 6 5 6 6 6 10 9 9 9 9 10 10 10 10 12 11 10 12 12 11 11 11 12
12 10 9 10 9 9 8 8 8 8 8 7 8 7 6 6 5 5 6 6 6 6 5 5 5 5 6 6 6 5 5 5 4 5 5 5 6 5 5 4 5 6 5 5 5 6 6 7 7 6 6 6 6 6 6 6 6 6 6 6 6 6 5 5 6 4 7 9 12 8 9 9 9 10 10 10 11 10 10 11 12 12 12 11 10
9 5 7 10 9 10 9 8 9 9 8 8 8 8 7 6 6 6 6 7 5 5 6 5 4 5 5 6 6 5 4 4 5 6 6 5 5 4 5 5 5 4 4 5 5 5 6 6 7 6 6 7 7 7 6 7 6 6 7 7 6 5 6 6 5 5 7 9 11 11 8 10 10 9 9 9 10 12 12 11 11 10 10 10 10
13 12 11 11 10 10 9 9 9 8 7 7 6 6 7 7 6 6 5 5 5 5 4 5 4 4 5 5 4 4 4 4 4 5 5 5 5 5 5 5 5 5 5 6 5 5 6 6 6 6 6 7 8 8 8 7 7 8 8 8 7 6 6 6 5 6 7 9 10 9 10 8 8 11 10 8 10 10 12 12 12 9 8 9 11
12 9 10 11 11 11 10 9 7 7 6 5 6 7 7 6 7 6 5 6 7 6 6 5 4 3 3 4 4 4 4 3 4 4 5 5 5 5 5 5 5 5 6 6 5 6 6 6 6 6 7 7 7 8 8 8 7 8 8 6 7 5 3 6 6 7 7 9 9 10 8 9 9 8 9 8 9 9 8 9 13 14 12 10 10
16 15 15 13 11 10 8 6 6 7 8 7 7 7 7 7 6 7 7 7 6 5 4 4 4 3 3 4 4 4 3 4 5 5 6 6 5 6 6 5 5 6 6 6 6 6 5 5 5 6 7 9 12 11 10 10 7 7 7 5 4 5 6 6 6 7 7 8 10 9 9 9 9 9 10 10 10 12 12 11 12 12 12 12 12
13 14 14 12 9 7 7 7 9 8 6 7 7 8 8 7 7 7 7 7 6 5 4 4 4 4 4 4 4 3 4 4 6 10 9 6 5 5 5 5 5 5 6 6 6 5 6 5 6 10 11 11 11 12 12 13 11 8 7 5 6 6 6 6 7 7 8 11 9 9 9 10 10 10 10 11 12 11 12 12 12 12 11 12 12
19 19 14 10 10 9 10 9 5 6 7 6 9 10 9 8 8 8 7 6 5 4 4 4 4 4 4 4 4 5 4 4 9 10 11 11 6 4 5 5 4 5 6 6 6 6 6 5 5 6 7 7 7 9 10 10 11 12 12 10 9 8 7 8 8 8 9 10 8 8 9 11 11 11 11 12 11 11 11 11 12 12 11 12 14
17 15 13 11 11 11 8 6 5 3 4 8 11 11 8 7 8 7 6 5 4 3 4 5 5 4 3 3 4 6 5 7 11 11 11 11 9 6 5 5 5 6 6 6 6 6 6 6 5 4 4 5 5 5 7 8 8 8 9 11 12 14 13 10 9 8 9 8 8 9 10 11 12 11 12 11 12 13 12 12 13 13 13 13 12
11 11 10 9 8 9 9 8 7 7 11 13 12 9 8 7 7 6 7 5 3 4 5 4 4 3 3 4 6 7 7 9 10 11 12 12 11 9 6 6 6 7 6 6 6 7 7 7 6 5 5 8 7 5 4 4 7 9 10 12 13 14 14 15 16 13 10 9 9 11 11 11 12 13 12 13 13 15 15 13 13 13 12 14 14
13 13 12 14 14 10 9 10 11 14 14 12 11 9 8 9 7 5 4 3 4 4 3 4 0 3 3 2 9 9 8 9 12 12 12 12 12 9 5 6 6 6 6 6 6 7 7 7 6 6 5 5 5 5 4 4 5 6 6 6 7 9 11 13 14 16 15 11 10 12 12 10 13 14 15 13 13 15 15 16 15 15 15 15 15
15 13 11 9 9 9 12 13 12 11 11 11 10 9 8 6 5 5 5 5 5 5 6 3 3 4 3 4 6 8 5 4 4 7 9 10 9 6 4 3 4 5 5 5 6 7 6 6 5 6 6 6 6 6 4 4 5 6 6 7 7 7 7 7 8 7 6 6 8 9 11 13 13 15 15 14 14 15 15 18 18 17 16 15 14
12 10 11 12 12 10 11 10 9 9 10 10 9 9 7 7 7 5 3 3 3 3 1 4 5 4 4 3 4 6 4 3 4 6 8 8 6 4 4 4 4 5 6 5 6 6 6 5 5 6 6 6 9 10 6 5 4 6 7 7 7 6 7 8 10 11 10 9 9 11 12 14 17 17 18 16 15 16 16 16 15 14 14 14 16
5 7 9 6 5 8 10 10 9 9 10 10 10 9 8 7 4 3 3 4 5 5 5 5 4 5 4 5 4 4 4 6 8 9 8 6 5 4 3 3 4 5 6 5 5 5 4 4 4 6 6 6 10 9 5 5 4 6 6 7 6 6 8 7 9 12 13 14 16 19 21 22 23 24 24 26 20 18 15 15 16 13 13 17 15
14 13 9 9 10 13 11 9 9 10 10 12 11 7 4 4 5 6 7 7 8 4 5 3 3 5 6 6 6 5 5 7 9 10 8 7 6 4 3 3 4 5 6 5 4 4 5 9 8 5 6 7 10 6 4 5 4 5 5 5 6 7 9 7 7 8 10 12 15 18 20 21 22 23 23 23 23 19 14 16 17 14 15 14 14
15 14 15 15 16 14 10 9 10 10 11 11 6 5 6 7 5 4 5 4 3 5 4 5 5 5 6 5 7 6 5 6 8 8 8 7 5 3 3 3 4 5 5 5 4 4 5 5 8 8 7 8 11 5 6 3 4 4 4 5 6 7 8 7 8 11 11 11 11 11 12 15 14 14 15 21 23 20 16 17 16 14 14 13 14
17 17 15 14 12 9 8 8 8 9 9 7 3 2 1 1 2 5 3 3 4 4 3 3 5 6 5 4 4 4 4 5 4 7 8 7 6 4 2 2 4 4 3 3 5 5 4 5 6 8 9 6 3 4 4 5 4 3 3 4 6 9 5 7 9 9 11 10 11 11 13 13 13 13 14 15 16 16 17 15 14 13 13 13 14
16 14 12 9 7 7 6 7 9 9 8 6 7 7 6 7 7 6 6 5 6 5 5 3 3 4 4 4 5 5 5 5 4 7 9 8 7 6 3 4 3 2 4 4 5 5 6 6 6 7 8 4 3 2 4 5 7 4 4 4 4 7 8 7 10 11 9 10 10 11 11 11 11 12 13 14 15 15 15 16 14 13 13 12 14
13 10 7 6 6 7 7 6 7 7 7 8 8 5 4 6 7 6 5 5 5 3 3 3 4 4 5 5 4 5 5 6 3 5 8 7 6 5 3 3 2 2 4 4 5 5 5 5 5 8 9 1 4 5 4 6 8 4 4 6 9 9 8 7 7 7 8 8 8 9 10 10 11 12 14 15 16 17 17 17 16 13 11 12 13
9 7 5 6 7 9 9 10 9 8 9 7 7 4 5 6 5 5 5 2 4 2 2 4 4 5 6 5 4 4 3 2 5 4 5 5 5 5 5 3 3 3 3 4 4 5 5 5 6 8 9 6 4 6 7 9 7 4 6 6 6 9 8 5 6 7 7 7 8 9 10 10 11 13 15 16 18 19 18 18 20 14 9 10 12
7 7 6 6 8 7 7 8 9 7 8 9 10 10 8 6 5 6 6 5 5 6 5 4 5 4 5 5 4 3 2 4 5 5 5 7 7 6 6 7 6 4 3 5 5 5 5 5 6 11 12 9 5 6 9 8 4 7 4 4 8 7 5 6 6 6 7 7 8 9 10 11 11 12 14 15 16 19 19 18 18 17 6 7 10
9 8 7 7 7 7 7 6 7 7 7 9 9 8 6 6 5 4 4 3 4 5 5 5 4 4 5 5 4 3 2 1 4 5 7 7 6 3 3 4 4 3 2 3 3 3 6 10 11 11 11 6 6 8 5 6 6 3 2 6 7 5 5 5 6 6 7 8 9 9 9 10 11 12 13 13 15 17 16 16 16 15 7 4 5
9 8 7 7 7 7 7 6 5 6 7 6 7 7 8 7 6 5 4 4 5 6 4 3 4 5 5 5 4 2 3 3 2 2 3 3 2 2 5 6 5 4 4 4 6 9 10 10 9 6 2 6 6 3 1 0 3 6 8 6 4 6 5 6 6 6 7 8 9 9 10 10 11 12 13 12 13 15 17 17 15 14 13 4 3
8 8 9 8 7 7 8 7 6 5 5 5 4 5 5 5 5 3 4 5 5 4 4 4 5 5 5 5 4 3 3 2 2 2 2 3 3 3 4 3 4 5 3 3 5 6 7 6 3 3 7 8 6 3 4 4 4 5 5 5 4 5 5 5 6 6 7 8 9 9 10 10 10 11 12 12 13 14 13 16 14 13 13 11 1
7 7 10 9 8 8 8 10 9 6 5 4 5 4 2 3 5 5 6 6 6 5 5 5 5 5 5 4 2 2 2 1 1 1 2 2 4 3 3 3 3 3 4 4 5 6 4 6 3 3 5 5 6 5 5 5 4 4 5 4 4 4 6 7 6 4 5 6 7 8 9 10 11 11 11 11 12 13 14 14 15 13 12 11 11
10 9 8 8 7 6 7 7 7 7 6 6 6 5 3 2 3 3 4 2 0 2 5 3 2 2 3 2 2 2 2 1 0 2 0 1 2 4 4 3 3 4 3 5 5 4 2 3 4 5 5 5 5 5 5 5 6 5 5 5 5 5 5 6 7 8 8 8 9 9 10 10 10 10 10 11 12 12 13 14 15 14 11 10 11
8 8 7 7 7 7 6 7 7 7 7 7 7 6 10 8 6 3 2 4 5 3 1 2 3 5 6 3 1 1 3 1 4 5 5 5 5 6 8 7 6 5 6 6 2 1 4 4 5 5 5 5 5 5 6 5 6 6 6 6 6 5 6 6 7 8 8 8 8 9 10 9 10 10 10 10 12 12 12 13 14 13 12 11 11
7 7 6 6 7 7 7 7 6 6 6 7 6 7 6 6 10 10 8 6 7 9 9 7 7 5 5 4 4 8 8 5 4 5 6 7 7 7 6 6 6 7 5 3 1 4 4 5 4 5 4 5 5 5 5 5 5 6 6 6 5 6 6 7 7 8 7 8 8 8 8 9 9 10 10 11 11 11 12 11 12 12 11 12 12
5 5 6 5 6 6 6 7 7 7 6 5 6 7 7 6 4 7 8 8 9 10 10 10 10 11 10 6 5 2 4 5 5 7 8 7 8 5 5 5 5 1 2 1 5 4 4 4 4 4 4 5 4 3 4 4 4 5 5 6 7 6 7 7 8 7 7 7 8 8 9 9 9 9 9 10 10 10 11 11 11 11 12 11 11
6 4 5 6 7 7 7 7 8 8 8 7 6 6 7 6 7 3 4 7 7 7 9 8 8 8 10 10 8 7 3 2 5 7 9 9 6 2 3 5 7 5 5 6 5 5 4 4 4 4 4 5 3 4 4 4 4 5 5 5 6 6 6 6 7 6 6 7 7 7 8 8 9 9 9 9 10 11 10 11 11 10 11 12 12
6 7 6 7 7 6 7 7 8 7 7 7 7 6 6 6 6 6 5 3 2 4 5 6 5 6 6 6 5 3 3 4 5 8 10 11 6 7 7 8 11 11 8 5 5 4 4 4 4 4 4 3 3 3 3 4 4 4 5 5 5 6 6 6 6 7 7 8 8 8 8 8 9 9 10 9 9 9 11 11 11 12 12 12 11
4 6 10 7 5 6 6 6 7 7 7 7 7 7 7 6 7 7 7 7 6 6 5 2 2 1 1 2 3 4 4 4 4 7 10 10 7 1 2 6 6 5 6 4 4 4 3 3 3 3 2 2 3 4 4 4 4 4 5 5 5 6 6 6 6 7 7 8 8 8 8 8 8 8 8 9 10 11 11 11 11 10 11 12 12
4 5 4 5 5 5 5 6 7 8 8 7 7 7 7 7 8 7 6 5 6 6 5 4 2 2 2 2 2 3 5 6 6 7 8 8 8 3 4 5 5 5 3 2 3 3 2 2 3 4 3 3 2 3 4 4 4 4 4 5 5 6 6 6 7 7 8 7 8 9 9 8 9 9 8 8 9 9 9 10 10 10 10 10 10
6 5 4 4 4 4 5 5 5 6 6 6 6 6 7 7 6 6 6 6 6 5 6 4 3 2 1 1 1 1 1 2 5 5 5 6 6 5 4 4 5 3 2 2 2 2 3 3 2 2 2 2 2 3 4 4 4 4 5 5 5 5 6 6 7 7 7 8 8 8 8 8 9 9 9 9 9 9 9 10 10 11 10 12 11
6 6 5 5 4 4 5 5 5 6 5 5 6 6 7 7 7 7 7 7 7 6 6 5 4 4 5 4 1 1 1 5 5 5 6 6 4 4 4 3 3 3 4 3 3 3 2 1 2 2 1 2 4 4 4 4 4 5 5 5 5 5 8 7 8 7 7 7 7 8 8 8 8 8 8 8 9 9 10 10 10 10 11 12 10
4 6 9 8 6 5 5 5 5 6 5 5 6 6 6 6 6 6 6 6 6 6 6 5 5 5 4 2 0 1 3 4 5 4 2 2 2 3 3 3 3 3 2 2 2 2 3 2 1 1 3 5 5 4 4 4 4 4 5 5 5 5 6 6 7 7 6 7 7 8 8 8 8 8 8 7 8 9 9 9 9 9 9 10 9
6 5 7 9 5 5 5 5 5 5 5 6 6 6 6 6 6 7 6 6 6 6 6 6 6 5 3 2 1 2 6 5 5 4 4 2 2 2 2 3 3 3 2 1 1 2 2 2 1 3 5 5 5 5 5 4 4 4 4 5 5 5 6 5 6 6 7 7 7 7 8 8 8 8 8 8 8 8 8 8 8 8 8 8 9
6 5 5 5 6 6 4 4 5 5 5 6 6 6 7 6 6 6 6 6 6 6 7 6 5 3 3 3 3 2 5 6 5 5 3 4 3 3 2 2 2 2 1 1 1 0 1 2 2 4 5 5 4 5 5 5 4 4 5 4 4 5 5 5 6 6 7 7 7 7 7 8 7 7 8 9 9 8 8 7 7 8 8 8 8
5 5 4 4 4 4 4 4 5 5 5 4 5 6 6 6 6 7 6 6 6 6 6 5 4 4 4 6 5 5 6 6 5 5 4 3 3 2 2 2 2 1 1 1 1 1 2 3 5 5 5 5 5 4 4 4 4 4 4 4 4 4 5 6 6 6 7 7 7 7 7 8 8 7 8 8 8 8 8 8 8 8 8 8 8
5 4 4 4 5 5 5 5 5 5 4 4 5 6 6 7 6 6 6 6 6 5 6 6 5 3 3 5 5 5 6 6 5 5 4 4 3 3 3 3 2 2 2 2 1 1 4 6 6 5 6 5 5 4 4 3 2 2 3 3 3 4 5 5 6 7 7 7 7 7 8 8 7 7 7 7 8 8 8 9 9 8 8 8 8
5 4 3 3 4 4 4 6 5 5 4 5 4 4 5 5 6 6 6 6 6 6 6 6 5 5 4 4 3 4 6 6 5 6 4 4 5 5 4 3 2 3 2 1 1 4 6 6 7 6 5 5 4 4 4 3 2 2 2 3 3 3 4 5 5 6 7 7 7 7 7 8 7 7 7 8 8 8 9 9 9 9 9 9 9
5 5 5 5 5 6 4 4 5 5 4 3 3 3 3 4 5 4 5 6 6 6 6 6 6 6 5 5 5 5 5 4 4 4 4 4 4 5 5 5 3 3 2 0 3 5 6 7 6 6 6 5 3 4 3 2 2 2 1 2 2 3 4 5 5 5 5 6 6 6 7 7 7 7 7 7 7 7 8 8 8 9 10 10 10
6 6 5 5 5 4 5 4 3 3 5 5 6 4 3 3 4 3 3 6 6 7 7 6 6 6 6 6 5 4 5 4 5 4 3 3 3 2 3 5 4 4 2 2 3 4 6 6 7 6 6 5 3 3 3 2 1 1 1 1 1 2 3 4 5 5 5 5 5 6 6 6 7 6 9 7 7 7 7 8 8 8 8 8 9
5 5 5 5 5 5 4 4 4 4 5 5 4 4 4 4 3 3 4 7 8 7 8 7 7 7 6 5 5 5 5 5 4 4 4 4 2 2 3 5 5 4 3 2 2 4 5 7 6 7 6 5 4 3 3 2 1 1 0 0 1 2 3 4 4 4 5 5 5 4 5 5 6 6 8 8 7 7 7 8 7 8 8 8 8
5 4 5 5 5 5 4 4 5 4 5 5 5 5 4 3 4 5 6 7 7 7 7 7 7 6 6 6 6 6 6 5 5 4 4 4 4 4 5 6 6 5 4 4 3 3 5 6 6 6 6 5 4 4 3 2 1 0 1 2 3 3 5 5 3 4 4 4 4 4 5 5 5 6 6 7 6 6 7 8 8 7 8 8 8
2 3 3 3 3 3 5 5 5 6 6 6 6 6 4 5 6 6 7 7 8 8 8 8 7 7 7 7 7 6 5 5 5 4 4 3 4 5 5 4 5 5 6 5 4 4 6 7 6 5 5 5 4 4 3 2 1 0 1 2 4 7 7 7 4 5 6 4 4 4 5 5 5 6 6 6 7 6 6 7 7 7 8 8 9
6 4 1 1 2 3 4 5 6 6 6 6 6 6 6 6 7 7 6 6 7 7 8 8 8 8 8 7 8 7 7 7 6 5 5 5 5 6 5 5 5 5 6 5 5 4 6 6 6 5 5 4 4 3 3 2 2 1 0 1 5 7 7 7 5 8 6 5 4 4 5 5 5 5 5 5 6 6 7 7 7 7 7 8 8
6 6 7 7 7 6 5 4 2 3 4 6 7 7 6 7 7 7 7 7 7 6 7 8 8 8 7 7 7 7 8 7 6 6 6 7 6 6 6 5 6 5 4 4 4 4 6 6 5 5 5 4 4 3 3 2 1 1 1 2 4 7 7 7 6 8 8 6 4 4 4 5 5 6 6 6 6 6 7 7 7 7 7 7 7
Wind_Direction
176 181 176 183 178 180 180 178 179 179 176 175 174 180 178 181 190 204 186 208 198 196 203 210 211 211 216 219 220 222 217 223 223 216 215 223 228 226 233 221 221 235 237 256 27 23 279 258 244 228 212 200 215 218 212 211 191 191 198 199 234 239 215 238 262 279 283 242 273 288 292 299 297 291 298 299 299 298 292 288 288 285 281 273 269
179 178 181 183 182 179 180 178 173 175 177 181 178 179 180 183 196 183 198 222 201 209 212 219 218 216 217 227 227 224 217 216 220 212 224 229 237 227 229 225 222 233 228 222 168 209 238 247 244 233 212 206 212 216 212 210 206 213 225 213 228 244 214 218 247 269 289 300 292 287 293 291 292 295 298 303 301 300 295 291 284 279 278 277 270
177 177 181 179 182 179 175 177 176 181 182 185 177 180 188 198 193 195 214 228 220 210 217 222 226 221 223 232 231 229 223 221 222 211 222 224 228 229 224 218 217 226 231 219 211 215 234 239 239 232 219 215 222 221 211 217 210 215 233 214 230 242 239 217 239 266 280 292 296 298 296 299 292 299 298 293 292 293 293 290 288 284 276 272 270
177 178 176 176 175 172 178 177 177 183 183 184 187 190 193 203 211 209 220 224 230 230 222 226 228 226 228 237 238 239 235 234 233 220 218 218 225 231 228 220 219 223 228 221 217 212 218 230 243 237 225 220 224 224 223 218 214 220 235 235 224 243 243 242 231 253 276 292 296 295 296 299 293 288 290 290 292 293 291 291 287 282 279 274 269
173 177 172 171 176 176 179 177 180 185 185 188 194 194 196 203 213 218 223 232 231 226 231 224 224 223 225 234 241 241 239 235 234 233 228 223 226 232 232 229 231 229 225 219 217 213 220 223 236 234 228 226 232 231 228 224 224 217 226 234 232 239 247 243 252 248 277 286 296 289 291 284 282 287 289 297 299 295 292 291 292 291 285 276 269
133 167 183 178 181 181 180 180 186 188 191 194 197 196 196 202 207 219 216 226 222 208 209 207 199 209 216 225 228 231 233 223 221 224 226 227 232 237 239 235 232 231 232 231 228 224 224 230 235 231 226 223 232 232 231 233 230 228 230 235 234 233 240 252 249 255 264 281 290 293 287 291 295 287 292 294 297 302 301 294 290 285 286 288 277
156 189 193 192 186 185 182 186 188 190 194 199 205 206 201 199 198 210 205 199 187 195 199 194 209 197 217 220 219 217 223 221 216 224 230 229 228 233 239 241 245 245 243 237 237 235 236 238 237 233 232 231 236 237 234 237 232 234 233 232 233 227 236 244 250 259 269 283 285 280 286 280 276 293 293 290 287 285 294 302 299 296 292 295 294
163 185 196 206 190 184 186 184 181 185 192 199 212 212 212 201 202 201 189 190 191 193 200 200 218 200 214 204 217 214 213 214 218 223 224 222 223 232 234 236 240 248 252 251 244 243 241 240 239 237 234 236 233 239 234 237 234 239 242 233 234 246 264 269 261 263 274 281 281 287 280 288 290 274 285 293 297 292 283 293 298 302 301 292 281
182 190 195 197 190 184 175 171 176 179 190 195 215 219 212 203 202 194 192 195 197 198 198 192 204 227 232 228 243 248 233 225 214 213 216 224 221 232 233 234 237 245 252 255 252 248 248 243 241 242 239 241 238 238 238 231 228 237 251 237 237 250 249 248 258 267 275 281 282 278 282 285 283 295 302 302 299 298 300 295 286 285 287 290 288
182 198 203 190 180 167 165 177 186 188 187 199 219 226 220 210 203 201 201 200 199 197 197 204 199 211 234 257 265 266 246 228 223 217 213 216 219 224 231 239 242 244 250 254 255 246 244 241 243 243 244 248 253 253 254 255 251 238 241 228 239 242 246 256 264 270 276 280 276 282 288 287 292 294 294 291 291 292 292 290 287 289 289 283 280
187 190 190 178 168 172 178 187 172 181 194 195 219 229 222 211 206 207 206 205 205 205 196 209 219 224 222 235 264 267 252 244 236 231 229 229 224 222 228 245 250 255 256 260 264 266 264 253 245 251 253 258 257 254 251 249 246 241 245 246 243 238 252 257 263 268 274 275 276 280 281 287 288 290 292 294 293 291 289 290 287 287 283 287 289
185 185 180 171 171 173 170 165 185 219 208 220 224 221 216 207 208 210 209 212 215 196 209 217 221 233 242 259 264 260 257 244 237 236 233 234 229 226 229 238 248 253 254 257 259 260 261 265 262 253 255 251 254 262 269 266 255 247 245 246 249 245 237 236 252 267 269 275 276 277 284 286 291 294 294 297 298 296 289 286 282 280 277 272 268
170 162 164 166 159 169 164 157 159 202 224 225 225 219 213 212 213 211 214 211 182 195 220 224 235 247 279 297 277 261 253 248 233 226 228 231 229 220 228 228 233 243 246 245 251 253 254 256 261 256 254 264 267 263 263 275 271 264 262 262 259 255 253 242 234 240 261 267 269 273 275 283 289 288 290 295 296 292 292 284 277 272 265 263 261
173 175 166 166 176 165 141 171 197 211 216 220 220 217 212 214 212 207 201 185 191 214 223 232 280 52 76 283 271 275 260 246 226 221 227 232 231 219 226 225 229 239 242 243 246 252 250 249 254 266 268 269 266 267 269 264 270 276 273 264 263 266 259 251 250 248 244 248 256 260 266 273 279 285 287 290 293 291 288 283 279 273 267 259 261
173 171 159 145 138 150 172 192 197 213 225 221 216 215 210 210 205 202 194 193 195 209 221 193 131 187 206 248 273 272 272 313 276 255 253 252 255 241 238 245 252 254 255 255 256 257 258 249 249 256 268 270 264 259 261 262 266 267 268 269 267 269 271 274 270 272 268 245 241 256 269 274 275 279 282 283 279 278 276 276 275 272 270 268 263
160 140 137 167 168 177 192 196 199 208 213 214 212 212 208 203 206 194 184 189 207 214 141 137 186 195 199 208 237 261 258 268 243 242 239 242 221 212 216 228 248 263 267 259 258 257 253 250 250 261 262 265 269 269 254 249 254 263 266 271 279 280 277 268 272 274 266 262 263 265 269 273 277 279 279 282 283 280 277 273 269 265 261 256 253
81 129 171 155 180 202 209 194 200 207 212 212 214 211 206 207 199 155 165 196 214 214 174 184 182 186 198 210 214 236 248 240 237 247 248 212 194 210 206 227 254 266 270 265 263 263 258 250 247 257 267 267 270 274 262 218 239 245 262 280 284 287 285 289 271 261 260 265 270 273 274 276 277 278 279 280 278 278 280 277 271 263 249 248 248
169 167 161 170 203 212 215 202 200 206 209 215 215 208 189 194 187 175 186 205 220 190 149 158 200 199 201 210 209 215 235 244 241 253 252 220 210 212 217 230 262 270 275 277 274 271 265 268 271 268 268 271 274 270 209 197 237 252 271 274 285 291 293 295 298 292 289 286 282 279 279 281 282 282 283 283 285 284 280 276 275 265 251 239 243
175 176 184 192 198 205 203 203 202 203 211 217 201 181 190 197 196 175 185 187 168 120 136 167 205 219 216 212 215 218 237 250 244 240 235 224 214 223 229 236 253 259 263 287 290 280 285 288 284 281 276 282 296 253 187 199 248 256 250 269 279 284 284 311 311 310 313 313 302 297 292 287 289 294 295 291 287 283 277 277 273 261 251 236 230
184 189 193 197 201 199 199 202 202 201 209 204 158 110 122 158 121 122 137 152 124 112 128 181 205 224 226 223 229 229 237 256 253 237 224 221 219 229 244 247 255 271 287 278 293 292 290 294 298 294 298 317 293 146 147 219 247 247 247 256 282 280 310 311 301 299 297 294 289 288 287 291 297 299 304 305 300 299 294 283 274 263 248 231 220
188 191 194 193 195 200 199 196 197 198 195 165 149 168 159 144 130 142 160 158 147 154 156 164 215 241 243 233 232 239 233 244 248 214 218 214 216 209 215 215 238 261 271 283 275 283 294 293 291 289 290 306 160 213 235 215 215 221 235 260 263 284 305 295 297 291 289 288 287 289 290 296 303 303 309 310 307 308 306 295 288 272 245 222 213
188 189 184 186 190 195 195 195 190 180 167 165 175 146 121 135 148 155 150 156 154 142 123 163 187 232 251 243 234 236 247 250 229 214 210 199 189 204 215 230 241 258 278 271 276 277 277 284 287 290 303 275 200 282 235 209 209 221 243 246 272 288 296 289 293 296 288 288 290 293 295 307 315 315 315 317 318 320 316 312 310 292 246 217 208
183 180 169 180 189 191 192 186 176 177 179 157 109 102 146 142 144 138 133 102 74 60 238 185 195 227 241 247 236 243 243 250 214 205 202 167 165 189 214 230 246 247 245 270 269 280 287 288 286 297 310 313 290 243 210 203 203 225 243 278 305 313 308 302 301 299 292 294 303 301 303 315 321 321 320 322 322 323 324 321 322 309 240 221 215
178 185 188 188 190 186 178 175 173 166 144 132 161 167 165 152 142 137 135 155 177 200 203 194 203 224 243 253 252 242 232 224 240 189 152 165 176 189 206 233 238 246 240 257 271 273 282 289 301 305 300 298 265 200 193 199 207 214 243 340 348 340 327 317 309 301 305 310 315 313 314 317 319 317 318 319 321 323 323 327 326 319 249 226 219
188 195 191 179 163 165 160 153 154 155 156 154 154 159 154 153 146 164 154 168 183 208 207 184 197 225 237 244 245 245 253 102 80 122 139 160 174 189 315 327 316 230 259 279 280 287 298 296 291 289 286 289 164 169 186 214 225 242 349 6 9 348 335 318 315 319 325 330 320 314 316 318 315 311 310 313 318 321 327 333 329 337 310 248 225
191 186 166 155 158 156 136 134 144 155 154 155 156 163 158 160 158 166 170 183 198 196 198 178 213 220 226 233 229 208 130 98 72 30 56 40 11 350 340 326 313 318 318 284 312 312 301 296 300 302 41 114 143 166 173 242 332 18 11 17 11 350 329 324 323 333 331 325 319 321 317 314 316 314 316 323 333 332 333 329 332 349 349 293 229
170 153 147 145 148 151 148 148 142 140 142 133 139 147 151 155 155 158 170 184 187 189 192 204 209 210 220 223 201 152 134 100 54 13 21 4 347 344 341 313 320 335 331 344 342 325 317 326 326 60 75 76 76 58 21 359 12 13 13 6 2 345 324 326 325 323 320 316 320 322 317 310 310 330 335 334 337 332 330 323 339 353 358 356 234
121 139 151 150 157 158 151 155 145 140 130 128 122 114 116 146 165 175 184 186 182 196 197 206 205 203 205 201 165 135 123 112 70 18 336 350 332 331 315 312 323 332 325 344 334 316 313 313 3 64 45 43 34 30 16 10 7 8 3 354 350 334 330 324 315 302 298 301 305 307 317 331 339 336 333 336 338 330 331 336 345 347 358 360 20
158 173 149 146 152 153 156 151 147 137 113 79 59 46 21 24 101 74 24 15 156 175 178 167 154 141 117 124 146 170 132 141 83 106 354 349 310 306 303 295 304 303 342 348 318 316 341 34 41 37 43 38 32 21 8 358 4 352 349 340 341 332 330 344 349 343 333 331 335 333 329 333 334 338 337 338 339 335 335 340 344 346 347 7 21
166 152 155 154 153 149 153 146 142 135 128 118 113 82 58 53 27 93 109 42 47 21 120 155 146 123 98 61 23 157 171 146 44 14 336 311 276 247 258 276 286 284 301 311 218 42 52 58 42 39 39 38 28 21 8 0 354 351 346 338 339 340 349 348 346 336 332 333 331 331 334 334 338 340 342 342 336 337 339 345 343 343 346 359 11
147 146 144 156 160 161 152 139 133 125 130 130 124 124 123 62 51 46 45 39 32 37 52 78 99 103 124 115 66 68 82 71 40 358 339 325 307 289 295 295 301 302 275 206 87 50 59 60 43 40 37 44 43 20 10 359 359 346 342 335 336 345 349 349 344 335 334 334 333 334 330 336 336 339 342 343 339 337 342 347 346 342 348 352 3
139 146 147 153 157 152 146 140 135 134 131 133 133 135 125 112 55 27 31 29 28 40 46 55 67 72 71 89 118 88 74 45 27 14 355 339 320 333 322 321 327 18 185 172 77 53 52 64 55 42 36 42 34 26 12 0 356 348 339 347 347 346 347 348 337 330 329 333 337 336 337 338 341 341 340 341 342 345 346 347 350 342 346 353 357
131 143 152 155 157 153 145 145 148 145 144 141 140 139 140 145 139 127 10 14 34 41 40 45 64 81 84 79 85 112 115 18 8 5 2 349 357 42 119 84 66 76 103 63 92 79 69 70 67 56 43 34 11 24 13 1 352 346 341 341 336 335 332 328 325 326 329 330 327 332 336 337 341 342 343 343 351 348 345 350 346 344 354 352 350
151 151 152 157 147 149 153 152 149 155 153 151 152 152 156 150 146 144 128 107 39 43 59 46 48 66 69 87 99 82 67 41 11 7 11 14 55 141 125 78 65 47 58 87 77 84 78 81 67 58 43 33 22 8 3 350 345 342 332 335 329 327 327 326 338 338 337 335 338 337 339 343 344 346 346 345 346 348 353 353 351 352 354 354 348
119 150 149 141 149 152 155 148 150 151 157 160 160 161 156 154 154 155 159 160 165 161 158 163 330 15 71 42 10 24 22 22 15 12 15 27 46 180 77 69 59 47 49 49 68 68 71 71 80 68 58 35 18 10 359 352 346 349 346 342 342 340 339 344 346 340 340 336 338 343 341 342 344 346 348 346 349 357 355 351 352 354 353 353 350
106 104 116 131 132 142 142 144 144 153 164 167 163 160 158 158 163 166 165 162 157 155 154 177 171 199 208 317 323 352 356 1 360 22 3 9 1 50 84 91 85 82 88 67 85 80 69 55 52 59 59 64 33 17 5 3 358 349 347 1 349 346 341 345 348 345 341 339 340 338 337 346 349 349 346 351 355 353 349 352 349 352 356 358 350
115 116 115 117 124 124 130 131 135 144 148 150 153 156 161 162 158 152 159 160 158 161 157 155 138 121 249 199 196 331 317 353 345 349 33 15 31 67 87 96 103 93 93 117 100 87 65 53 50 58 45 64 44 20 10 14 6 5 360 6 355 349 351 346 351 346 343 344 342 342 341 342 348 350 351 350 349 352 352 352 353 354 358 359 356
132 131 134 135 127 131 127 130 141 142 139 139 145 151 157 159 160 159 160 162 163 158 155 164 170 178 175 203 140 85 67 84 101 67 46 32 39 52 71 92 98 104 104 103 106 106 117 132 95 70 28 40 49 35 36 26 19 15 8 355 358 358 354 353 353 349 347 344 343 343 340 338 345 347 350 353 351 349 350 353 354 354 354 2 6
107 129 139 145 148 146 142 137 137 139 139 137 145 146 149 151 150 151 157 159 159 157 157 164 178 184 199 169 87 346 106 110 110 118 103 84 74 83 90 82 98 108 104 96 102 117 121 118 91 78 46 50 62 52 45 32 21 20 3 1 358 353 358 357 351 348 348 346 341 339 340 337 337 346 345 349 353 351 348 346 353 356 357 355 355
136 147 154 151 147 148 149 149 147 145 147 142 148 145 141 146 147 150 148 147 153 158 159 172 183 189 165 147 170 130 126 134 138 143 140 130 108 74 96 104 95 95 94 77 110 149 147 146 137 77 70 74 75 63 47 39 28 10 6 12 6 359 354 346 345 347 346 339 341 340 341 338 333 340 343 353 351 348 347 349 346 349 352 351 351
140 148 156 159 156 154 150 139 150 157 154 153 153 149 155 151 147 145 148 154 159 161 170 174 174 175 168 168 179 192 137 144 147 147 151 153 155 144 138 149 146 125 117 113 91 62 126 135 105 87 83 86 74 65 51 40 24 15 8 16 8 2 346 346 347 348 345 345 343 340 338 338 333 343 352 348 346 346 347 347 348 351 353 355 358
135 141 141 142 146 135 130 139 153 157 151 148 146 154 155 158 156 154 156 160 162 160 155 159 171 169 164 167 190 187 134 140 145 151 159 160 164 177 175 178 187 183 168 170 159 89 91 98 85 86 91 81 79 68 59 46 32 16 5 6 14 1 356 349 343 346 346 343 339 336 337 338 335 342 347 351 349 346 349 352 353 353 357 359 1
138 141 137 124 127 138 140 141 134 133 139 139 149 158 159 159 167 166 163 163 160 152 156 163 173 162 167 190 198 176 129 148 152 163 165 171 182 185 183 196 208 204 214 231 232 133 109 97 92 90 93 92 87 86 80 74 56 31 11 360 3 16 357 343 351 349 345 343 338 335 335 333 339 340 350 355 352 350 354 352 354 357 359 2 3
137 132 125 122 130 128 131 132 137 140 147 159 154 147 157 165 173 172 162 163 160 157 160 165 164 165 168 191 196 152 146 156 160 169 174 166 177 184 197 205 209 230 240 254 17 91 108 104 101 97 93 94 96 93 96 88 86 77 35 16 6 11 4 350 341 338 335 332 330 333 333 335 336 341 353 358 355 356 356 357 357 358 359 3 2
127 124 121 119 129 132 138 142 141 148 159 159 153 172 161 159 170 181 155 163 166 160 162 164 166 164 174 181 190 179 182 173 171 167 171 178 182 182 180 178 194 212 218 58 105 110 109 113 113 109 105 100 101 105 102 99 88 77 70 55 35 5 340 322 305 305 307 319 320 324 332 334 337 341 355 357 358 357 359 357 356 356 2 5 7
139 134 131 131 133 138 142 142 152 153 156 168 175 184 184 184 192 193 152 154 157 156 162 166 169 175 180 181 191 189 184 188 184 174 180 186 165 172 166 168 175 188 175 158 145 120 119 120 120 119 121 125 120 112 111 109 107 99 89 72 351 297 286 286 288 299 315 320 317 319 323 331 338 345 4 1 355 359 0 358 2 6 4 3 7
134 142 145 147 148 158 166 168 161 165 166 174 180 188 201 206 203 179 161 158 159 160 167 172 174 180 179 181 186 195 191 194 191 193 186 192 140 145 161 156 163 165 143 135 130 131 125 122 125 129 130 134 134 129 124 114 88 36 40 319 292 304 295 290 291 304 306 305 307 301 323 329 341 345 357 1 2 0 3 5 4 5 3 8 7
148 156 156 155 155 165 177 170 179 171 176 186 195 201 201 174 168 155 151 156 156 164 171 177 178 177 174 182 191 192 193 188 196 189 199 175 147 150 138 150 149 154 146 141 139 134 123 123 127 129 134 140 136 136 135 141 150 360 320 323 307 308 321 319 306 312 307 306 296 313 316 332 342 358 359 3 4 1 8 4 1 5 8 8 10
144 161 155 154 169 181 181 184 188 186 191 198 202 208 200 173 173 170 167 165 169 172 172 179 182 180 178 181 185 188 190 187 194 182 191 169 152 151 150 153 144 146 147 153 159 135 118 125 131 135 140 142 142 146 159 169 171 227 337 318 322 336 331 329 326 332 328 325 331 335 344 349 3 3 3 7 4 3 8 8 8 8 8 11 15
58 68 73 201 207 211 206 196 198 198 203 201 198 197 192 176 179 180 179 177 177 170 170 174 176 180 176 177 183 182 180 192 187 172 173 160 161 151 152 155 153 160 159 164 177 162 126 132 137 140 140 144 147 157 160 162 160 136 340 319 340 334 339 335 335 352 358 346 335 329 324 353 6 7 3 7 7 9 14 10 9 11 13 15 16
79 77 67 64 61 52 35 15 338 288 244 210 201 200 186 185 188 186 183 183 182 167 164 169 172 174 178 176 174 176 176 177 169 166 163 162 163 153 149 151 159 163 169 177 186 156 121 134 142 148 146 147 150 154 158 153 143 136 62 28 355 348 348 353 357 349 349 349 343 342 355 6 13 6 3 1 12 14 13 15 15 14 14 14 14